"Pseudo-MPEC" for A10qz23

Created 2020 Sep 16 16:07:06 UT using Find_Orb

Click here for an explanation of pseudo-MPECs

 
 Astrometry: 
     A10qz23  C2020 09 16.47006402 21 27.69 +02 42 44.4    ~9GDM 17.65oVNEOCPT08
     A10qz23  C2020 09 16.48257002 21 33.86 +02 34 48.8    ~9GDM 17.71oVNEOCPT08
     A10qz23  C2020 09 16.48533602 21 35.20 +02 33 04.4    ~9GDM 17.81oVNEOCPT08
     A10qz23  C2020 09 16.48948702 21 37.25 +02 30 26.4    ~9GDM 17.91oVNEOCPT08
     A10qz23  C2020 09 16.55591802 22 09.23 +01 48 43.5    ~9GEq 17.47oVNEOCPT08
     A10qz23  C2020 09 16.55597202 22 09.48 +01 48 36.2    ~9GE7 18.05cVNEOCPT05
     A10qz23  C2020 09 16.55642902 22 09.68 +01 48 19.0    ~9GE7 18.19cVNEOCPT05
     A10qz23  C2020 09 16.55688602 22 09.92 +01 48 01.5    ~9GE7 17.94cVNEOCPT05
     A10qz23  C2020 09 16.55691602 22 09.71 +01 48 05.9    ~9GEq 17.70oVNEOCPT08
     A10qz23  C2020 09 16.55734302 22 10.11 +01 47 44.8    ~9GE7 17.88cVNEOCPT05
     A10qz23  C2020 09 16.55759202 22 10.05 +01 47 40.5    ~9GEq 17.75oVNEOCPT08
     A10qz23  C2020 09 16.55780102 22 10.36 +01 47 27.8    ~9GE7 17.85cVNEOCPT05
     A10qz23  C2020 09 16.55891602 22 10.67 +01 46 50.5    ~9GEq 17.86oVNEOCPT08
     A10qz23  C2020 09 16.55937502 22 10.89 +01 46 33.5    ~9GEq 17.73oVNEOCPT08

Station data:
(T05) ATLAS-HKO, Haleakala  (N20.707573 W156.257010)  US/Hawaii.  Observers
   L. Denneau, A. Heinze, H. Weiland, J. Tonry, H. Flewelling, A.
   Fitzsimmons, D. Young, B. Stalder. Measurers L. Denneau, A. Heinze, J.
   Tonry. 0.5-m f/2.0 Schmidt + CCD.
(T08) ATLAS-MLO, Mauna Loa  (N19.536152 W155.576050)  US/Hawaii.  Observers
   L. Denneau, A. Heinze, H. Weiland, J. Tonry, H. Flewelling, A.
   Fitzsimmons, D. Young, B. Stalder. Measurers L. Denneau, A. Heinze, J.
   Tonry. 0.5-m f/2.0 Schmidt + CCD.

Orbital elements:  A10qz23
   Perihelion 2020 Aug 22.454944 +/- 0.466 TT = 10:55:07 (JD 2459083.954944)
Epoch 2020 Sep 17.0 TT = JDT 2459109.5   Earth MOID: 0.0223   AutoNEOCP
M  14.56632813 +/- 1.5              (J2000 ecliptic)
n   0.57022101 +/- 0.0618           Peri.  153.47196 +/- 0.9
a   1.44025890 +/- 0.104            Node   174.03392 +/- 0.06
e   0.3032566 +/- 0.0534            Incl.   20.76427 +/- 1.0
P   1.73/631.32d           H 23.6   G  0.15   U 10.9  
q 1.00349084 +/- 0.00489    Q 1.87702695 +/- 0.203
From 14 observations 2020 Sept. 16 (2.1 hr); mean residual 0".20
Residuals in arcseconds: 
200916 T08  .16+  .10+    200916 T05  .12+  .12+    200916 T08  .15+  .05+    
200916 T08  .04+  .24-    200916 T05  .15-  .03+    200916 T05  .23+  .21+    
200916 T08  .23-  .33+    200916 T05  .18+  .35-    200916 T08  .02-  .39-    
200916 T08  .00   .23-    200916 T08  .12-  .14+    200916 T08  .00   .20-    
200916 T08  .18-  .36+    200916 T05  .24-  .06+    

Ephemerides (geocentric):
Date (UTC) HH   RA              Dec         delta   r     elong  mag " sig PA
---- -- -- --  -------------   -----------  ------ ------ -----  --- ---- ---
2020 09 16 16  02 23 13.960   +00 41 43.94  .03406 1.0310 138.5 17.9 10.9  65
2020 09 16 17  02 23 37.410   +00 16 25.74  .03420 1.0311 138.5 17.9 14.0  71
2020 09 16 18  02 24 00.648   -00 08 39.56  .03435 1.0312 138.5 17.9 17.2  75
2020 09 16 19  02 24 23.677   -00 33 31.97  .03450 1.0313 138.4 17.9 20.3  78
2020 09 16 20  02 24 46.499   -00 58 11.47  .03465 1.0314 138.4 17.9 23.5  80
2020 09 16 21  02 25 09.116   -01 22 38.07  .03480 1.0315 138.4 18.0 26.7  82
2020 09 16 22  02 25 31.531   -01 46 51.78  .03496 1.0315 138.3 18.0 29.8  83
2020 09 16 23  02 25 53.747   -02 10 52.61  .03511 1.0316 138.3 18.0 33.0  84
2020 09 17 00  02 26 15.766   -02 34 40.58  .03527 1.0317 138.2 18.0 36.1  85
2020 09 17 01  02 26 37.589   -02 58 15.71  .03543 1.0318 138.2 18.0 39.2  86
2020 09 17 02  02 26 59.220   -03 21 38.03  .03559 1.0319 138.1 18.0 42.3  87
2020 09 17 03  02 27 20.660   -03 44 47.57  .03576 1.0320 138.1 18.0 45.4  88
2020 09 17 04  02 27 41.912   -04 07 44.38  .03592 1.0321 138.0 18.0 48.5  88
2020 09 17 05  02 28 02.978   -04 30 28.48  .03609 1.0322 137.9 18.0 51.6  89
2020 09 17 06  02 28 23.860   -04 52 59.93  .03626 1.0323 137.9 18.1 54.6  90
2020 09 17 07  02 28 44.560   -05 15 18.77  .03643 1.0323 137.8 18.1 57.6  90
2020 09 17 08  02 29 05.081   -05 37 25.06  .03660 1.0324 137.7 18.1 60.6  91
2020 09 17 09  02 29 25.423   -05 59 18.86  .03677 1.0325 137.7 18.1 63.6  91
2020 09 17 10  02 29 45.590   -06 21 00.23  .03695 1.0326 137.6 18.1 66.5  92
2020 09 17 11  02 30 05.584   -06 42 29.22  .03712 1.0327 137.5 18.1 69.5  92
2020 09 17 12  02 30 25.405   -07 03 45.90  .03730 1.0328 137.5 18.1 72.4  93
2020 09 17 13  02 30 45.057   -07 24 50.35  .03748 1.0329 137.4 18.1 75.3  93
2020 09 17 14  02 31 04.541   -07 45 42.63  .03766 1.0330 137.3 18.2 78.2  93
2020 09 17 15  02 31 23.859   -08 06 22.83  .03784 1.0331 137.2 18.2 81.1  94
2020 09 17 16  02 31 43.012   -08 26 51.00  .03803 1.0332 137.1 18.2 83.9  94
2020 09 17 17  02 32 02.003   -08 47 07.24  .03821 1.0333 137.1 18.2 86.7  95
2020 09 17 18  02 32 20.834   -09 07 11.63  .03840 1.0333 137.0 18.2 89.5  95
2020 09 17 19  02 32 39.506   -09 27 04.24  .03859 1.0334 136.9 18.2 92.3  95
2020 09 17 20  02 32 58.021   -09 46 45.16  .03878 1.0335 136.8 18.2 95.1  96
2020 09 17 21  02 33 16.381   -10 06 14.48  .03897 1.0336 136.7 18.2 97.8  96
2020 09 17 22  02 33 34.587   -10 25 32.29  .03916 1.0337 136.6 18.3  101  96
2020 09 17 23  02 33 52.641   -10 44 38.67  .03935 1.0338 136.6 18.3  103  97
2020 09 18 00  02 34 10.545   -11 03 33.71  .03955 1.0339 136.5 18.3  106  97
2020 09 18 01  02 34 28.300   -11 22 17.51  .03974 1.0340 136.4 18.3  109  97
2020 09 18 02  02 34 45.909   -11 40 50.16  .03994 1.0341 136.3 18.3  111  97
2020 09 18 03  02 35 03.371   -11 59 11.76  .04014 1.0342 136.2 18.3  114  98
2020 09 18 04  02 35 20.690   -12 17 22.39  .04034 1.0343 136.1 18.3  116  98
2020 09 18 05  02 35 37.867   -12 35 22.16  .04054 1.0344 136.0 18.4  119  98
2020 09 18 06  02 35 54.903   -12 53 11.15  .04074 1.0345 135.9 18.4  122  99
2020 09 18 07  02 36 11.799   -13 10 49.47  .04094 1.0346 135.8 18.4  124  99
2020 09 18 08  02 36 28.558   -13 28 17.22  .04115 1.0346 135.7 18.4  127  99
2020 09 18 09  02 36 45.180   -13 45 34.48  .04135 1.0347 135.6 18.4  129  99
2020 09 18 10  02 37 01.667   -14 02 41.37  .04156 1.0348 135.5 18.4  132 100
2020 09 18 11  02 37 18.021   -14 19 37.97  .04177 1.0349 135.4 18.4  134 100
2020 09 18 12  02 37 34.243   -14 36 24.39  .04198 1.0350 135.4 18.4  137 100
2020 09 18 13  02 37 50.334   -14 53 00.72  .04219 1.0351 135.3 18.5  139 100
2020 09 18 14  02 38 06.295   -15 09 27.07  .04240 1.0352 135.2 18.5  141 100
2020 09 18 15  02 38 22.129   -15 25 43.53  .04261 1.0353 135.1 18.5  144 101